| time (UTC) | temp C | wind direction | speed KPH | gust KPH | rain 1hr cm | rain 24hr cm | rain mn cm | humidity % | barometer mb |
| 20260505024005 | 11 | 187 | 0.0 | 3.2 | 0.00 | 0.18 | 0.18 | 65 | 1004.4 |
| 20260505023504 | 11 | 229 | 1.6 | 3.2 | 0.00 | 0.18 | 0.18 | 65 | 1004.4 |
| 20260505021003 | 12 | 243 | 1.6 | 4.8 | 0.00 | 0.18 | 0.18 | 65 | 1004.6 |
| 20260505020004 | 11 | 235 | 1.6 | 3.2 | 0.00 | 0.18 | 0.18 | 66 | 1004.6 |
| 20260505013504 | 12 | 197 | 0.0 | 3.2 | 0.00 | 0.18 | 0.18 | 67 | 1004.6 |
| 20260505013005 | 12 | 208 | 0.0 | 4.8 | 0.00 | 0.18 | 0.18 | 66 | 1004.6 |
| 20260505012003 | 11 | 142 | 0.0 | 0.0 | 0.00 | 0.18 | 0.18 | 67 | 1004.7 |
| 20260505010004 | 12 | 134 | 0.0 | 0.0 | 0.00 | 0.18 | 0.18 | 67 | 1004.6 |
| 20260505004003 | 12 | 134 | 0.0 | 0.0 | 0.00 | 0.18 | 0.18 | 67 | 1004.3 |
| 20260505003003 | 12 | 135 | 0.0 | 1.6 | 0.00 | 0.18 | 0.18 | 66 | 1004.2 |
| 20260505002503 | 12 | 135 | 1.6 | 1.6 | 0.00 | 0.18 | 0.18 | 65 | 1004.1 |
| 20260505001003 | 13 | 214 | 0.0 | 3.2 | 0.00 | 0.18 | 0.18 | 63 | 1004.0 |
| 20260504235503 | 12 | 259 | 3.2 | 8.0 | 0.00 | 0.18 | 0.18 | 66 | 1003.8 |
| 20260504234003 | 12 | 63 | 0.0 | 1.6 | 0.00 | 0.18 | 0.18 | 67 | 1003.8 |
| 20260504231503 | 13 | 134 | 0.0 | 1.6 | 0.00 | 0.18 | 0.18 | 66 | 1003.5 |
| 20260504230503 | 13 | 135 | 0.0 | 1.6 | 0.00 | 0.18 | 0.18 | 64 | 1003.3 |
| 20260504230003 | 14 | 135 | 0.0 | 0.0 | 0.00 | 0.18 | 0.18 | 63 | 1003.3 |
| 20260504225003 | 14 | 203 | 0.0 | 0.0 | 0.00 | 0.18 | 0.18 | 61 | 1003.3 |
| 20260504224503 | 14 | 203 | 0.0 | 1.6 | 0.00 | 0.18 | 0.18 | 60 | 1003.1 |
| 20260504224003 | 14 | 245 | 0.0 | 0.0 | 0.00 | 0.18 | 0.18 | 61 | 1003.1 |
| 20260504223503 | 15 | 250 | 0.0 | 0.0 | 0.00 | 0.18 | 0.18 | 60 | 1003.0 |
| 20260504222504 | 15 | 250 | 0.0 | 1.6 | 0.00 | 0.18 | 0.18 | 59 | 1003.1 |
| 20260504222004 | 15 | 254 | 0.0 | 1.6 | 0.00 | 0.18 | 0.18 | 59 | 1003.2 |
| 20260504215003 | 15 | 269 | 0.0 | 3.2 | 0.00 | 0.18 | 0.18 | 58 | 1003.2 |
| 20260504214003 | 15 | 271 | 0.0 | 3.2 | 0.00 | 0.18 | 0.18 | 59 | 1003.3 |
| 20260504213503 | 15 | 279 | 1.6 | 3.2 | 0.00 | 0.18 | 0.18 | 61 | 1003.3 |
| 20260504212503 | 14 | 261 | 3.2 | 8.0 | 0.00 | 0.18 | 0.18 | 61 | 1003.4 |
| 20260504211503 | 14 | 246 | 4.8 | 8.0 | 0.00 | 0.18 | 0.18 | 62 | 1003.3 |
| 20260504210503 | 13 | 238 | 1.6 | 3.2 | 0.00 | 0.18 | 0.18 | 62 | 1003.4 |
| 20260504210004 | 13 | 258 | 1.6 | 4.8 | 0.00 | 0.18 | 0.18 | 62 | 1003.5 |
| 20260504205503 | 13 | 266 | 3.2 | 9.7 | 0.00 | 0.18 | 0.18 | 62 | 1003.5 |
| 20260504203004 | 14 | 235 | 6.4 | 12.9 | 0.00 | 0.18 | 0.18 | 64 | 1003.6 |
| 20260504202502 | 14 | 242 | 4.8 | 14.5 | 0.00 | 0.18 | 0.18 | 66 | 1003.7 |
| 20260504200503 | 12 | 264 | 3.2 | 4.8 | 0.00 | 0.18 | 0.18 | 70 | 1004.0 |
| 20260504193503 | 11 | 258 | 3.2 | 11.3 | 0.00 | 0.18 | 0.18 | 70 | 1004.3 |
| 20260504192003 | 11 | 275 | 4.8 | 12.9 | 0.00 | 0.18 | 0.18 | 71 | 1004.4 |
| 20260504191504 | 11 | 279 | 3.2 | 16.1 | 0.00 | 0.18 | 0.18 | 70 | 1004.5 |
| 20260504190504 | 11 | 290 | 3.2 | 9.7 | 0.00 | 0.18 | 0.18 | 71 | 1004.4 |
| 20260504185503 | 12 | 263 | 8.0 | 16.1 | 0.00 | 0.18 | 0.18 | 70 | 1004.6 |
| 20260504184503 | 12 | 266 | 11.3 | 19.3 | 0.00 | 0.18 | 0.18 | 71 | 1004.6 |
| 20260504183003 | 11 | 262 | 14.5 | 22.5 | 0.00 | 0.18 | 0.18 | 73 | 1004.6 |
| 20260504182004 | 11 | 272 | 16.1 | 25.7 | 0.00 | 0.18 | 0.18 | 73 | 1004.7 |
| 20260504181503 | 11 | 251 | 9.7 | 27.4 | 0.00 | 0.18 | 0.18 | 76 | 1004.8 |
| 20260504180503 | 10 | 244 | 14.5 | 24.1 | 0.00 | 0.18 | 0.18 | 77 | 1004.7 |
| 20260504174503 | 9 | 274 | 9.7 | 22.5 | 0.00 | 0.18 | 0.18 | 80 | 1004.9 |
| 20260504173003 | 9 | 263 | 17.7 | 27.4 | 0.00 | 0.18 | 0.18 | 84 | 1005.0 |
| 20260504172003 | 8 | 268 | 11.3 | 19.3 | 0.00 | 0.18 | 0.18 | 88 | 1005.0 |
| 20260504171503 | 7 | 249 | 9.7 | 19.3 | 0.00 | 0.18 | 0.18 | 88 | 1005.1 |
| 20260504171003 | 7 | 252 | 8.0 | 11.3 | 0.00 | 0.18 | 0.18 | 89 | 1005.1 |
| 20260504151004 | 6 | 270 | 11.3 | 19.3 | 0.08 | 0.18 | 0.18 | 93 | 1004.9 |
| 20260504150504 | 6 | 246 | 8.0 | 20.9 | 0.10 | 0.18 | 0.18 | 92 | 1004.9 |
| 20260504140503 | 6 | 247 | 6.4 | 12.9 | 0.08 | 0.08 | 0.08 | 90 | 1004.3 |
| 20260504110504 | 3 | 241 | 1.6 | 4.8 | 0.00 | 0.00 | 0.00 | 91 | 1005.1 |
| 20260504100504 | 3 | 257 | 4.8 | 9.7 | 0.00 | 0.00 | 0.00 | 80 | 1005.5 |
| 20260504082004 | 2 | 216 | 1.6 | 8.0 | 0.00 | 0.03 | 0.00 | 70 | 1005.9 |
| 20260504081504 | 2 | 188 | 0.0 | 1.6 | 0.00 | 0.03 | 0.00 | 69 | 1005.8 |
| 20260504081004 | 2 | 231 | 1.6 | 4.8 | 0.00 | 0.03 | 0.00 | 68 | 1005.9 |
| 20260504050004 | 2 | 247 | 1.6 | 3.2 | 0.00 | 0.05 | 0.00 | 64 | 1006.1 |
| 20260504044505 | 2 | 237 | 1.6 | 3.2 | 0.00 | 0.05 | 0.00 | 64 | 1006.2 |
| 20260504044004 | 2 | 227 | 3.2 | 4.8 | 0.00 | 0.05 | 0.00 | 64 | 1006.3 |
| 20260504042004 | 2 | 237 | 3.2 | 8.0 | 0.00 | 0.05 | 0.00 | 65 | 1006.3 |
| 20260504041504 | 2 | 239 | 1.6 | 4.8 | 0.00 | 0.05 | 0.00 | 66 | 1006.3 |
| 20260504040004 | 2 | 244 | 1.6 | 4.8 | 0.00 | 0.05 | 0.00 | 67 | 1006.4 |
| 20260504034004 | 2 | 270 | 1.6 | 1.6 | 0.00 | 0.05 | 0.05 | 68 | 1006.3 |
| 20260504033504 | 2 | 236 | 1.6 | 3.2 | 0.00 | 0.05 | 0.05 | 68 | 1006.3 |
| 20260504031004 | 2 | 236 | 1.6 | 3.2 | 0.00 | 0.05 | 0.05 | 68 | 1006.3 |
| 20260504030505 | 2 | 253 | 0.0 | 1.6 | 0.00 | 0.05 | 0.05 | 69 | 1006.2 |
| 20260504030004 | 2 | 239 | 0.0 | 1.6 | 0.00 | 0.05 | 0.05 | 69 | 1006.3 |
| 20260504024504 | 2 | 254 | 0.0 | 3.2 | 0.00 | 0.05 | 0.05 | 68 | 1006.3 |